Sauk Centre, MN

8:03 AM CST on December 15, 2019 (GMT -0600)
Sauk Centre

Weather History for KD39 - October, 2019

Change the Weather History Date:

Tuesday, October 1, 2019

  Actual Average (KGHW) Record (KGHW)
Temperature  
Mean Temperature 48 °F -  
Max Temperature 52 °F 67 °F 87 °F (1992)
Min Temperature 43 °F 41 °F 26 °F (1961)
Degree Days  
Heating Degree Days 18    
Moisture  
Dew Point 43 °F    
Average Humidity 86    
Maximum Humidity 95    
Minimum Humidity 71    
Precipitation  
Precipitation 0.00 in - - ()
Sea Level Pressure  
Sea Level Pressure 30.05 in    
Wind  
Wind Speed 8 mph ()    
Max Wind Speed 17 mph    
Max Gust Speed 20 mph    
Visibility 10.0 miles    
Events Rain    
Averages and records for this station are not official NWS values.
T = Trace of Precipitation, MM = Missing Value Source: Averaged Metar Reports

Daily Weather History Graph

Daily Weather History Graph

Search for Another Location

Airport or City:

Astronomy

Oct. 01, 2019 Rise Set
Actual Time 7:17 AM CDT 7:00 PM CDT
Civil Twilight 6:48 AM CDT 7:29 PM CDT
Nautical Twilight 6:13 AM CDT 8:04 PM CDT
Astronomical Twilight 5:38 AM CDT 8:39 PM CDT
Moon 10:43 AM CDT (10/1) 9:03 PM CDT (10/1)
Length of Visible Light 12h 41m
Length of Day
11h 42m
Waxing Crescent, 12% of the Moon is Illuminated
Oct 1
Waxing Crescent
Oct 5
First Quarter
Oct 13
Full
Oct 21
Last Quarter
Oct 27
New

Hourly Weather History & Observations

Time (CDT) Temp. Windchill Dew Point Humidity Pressure Visibility Wind Dir Wind Speed Gust Speed Precip Events Conditions
12:15 AM 48.6 °F - 46.6 °F 93% 29.94 in 10.0 mi NNW 10.4 mph 16.1 mph N/A   Overcast
12:16 AM 48.6 °F - 46.6 °F 93% 29.94 in 10.0 mi NNW 11.5 mph 16.1 mph N/A   Overcast
12:35 AM 48.4 °F - 46.6 °F 93% 29.92 in 10.0 mi NNW 9.2 mph - N/A   Overcast
12:36 AM 48.4 °F - 46.6 °F 93% 29.92 in 10.0 mi North 5.8 mph - N/A   Overcast
12:58 AM 48.2 °F - 45.9 °F 92% 29.93 in 10.0 mi NNW 8.1 mph - N/A   Overcast
1:17 AM 47.8 °F - 45.5 °F 92% 29.95 in 10.0 mi NNW 9.2 mph - N/A   Overcast
1:36 AM 47.7 °F - 45.5 °F 92% 29.95 in 10.0 mi NNW 10.4 mph - N/A   Overcast
1:55 AM 47.5 °F - 45.5 °F 93% 29.96 in 10.0 mi NW 6.9 mph - N/A   Overcast
1:56 AM 47.5 °F - 45.5 °F 93% 29.96 in 10.0 mi NW 8.1 mph - N/A   Overcast
2:15 AM 47.5 °F - 45.7 °F 93% 29.98 in 10.0 mi NW 4.6 mph - N/A   Overcast
2:19 AM 47.7 °F - 45.9 °F 93% 29.98 in 10.0 mi NW 5.8 mph - N/A   Overcast
2:37 AM 47.8 °F - 45.9 °F 93% 29.97 in 10.0 mi NNW 6.9 mph - N/A   Overcast
2:56 AM 47.3 °F - 45.5 °F 93% 30.04 in 10.0 mi WNW 17.3 mph - N/A   Overcast
3:15 AM 47.5 °F - 44.8 °F 90% 30.04 in 10.0 mi NW 8.1 mph - N/A Rain Light Rain
3:35 AM 47.5 °F - 45.7 °F 93% 30.03 in 10.0 mi NNW 8.1 mph - N/A   Overcast
3:58 AM 47.5 °F - 45.7 °F 93% 30.04 in 10.0 mi NNW 8.1 mph - N/A   Overcast
4:17 AM 46.8 °F - 44.6 °F 92% 30.01 in 10.0 mi North 11.5 mph - N/A   Mostly Cloudy
4:36 AM 46.4 °F 40.7 °F 43.7 °F 90% 30.01 in 10.0 mi NNW 12.7 mph 19.6 mph N/A   Overcast
4:55 AM 46.2 °F 40.1 °F 43.3 °F 90% 30.04 in 10.0 mi NNW 13.8 mph 18.4 mph N/A   Overcast
4:56 AM 46.2 °F 39.8 °F 43.3 °F 90% 30.03 in 10.0 mi NNW 15.0 mph 18.4 mph N/A   Overcast
5:15 AM 46.0 °F 40.6 °F 43.7 °F 92% 30.03 in 10.0 mi NNW 11.5 mph 18.4 mph N/A Rain Light Rain
5:19 AM 46.0 °F 40.2 °F 43.7 °F 92% 30.04 in 10.0 mi NNW 12.7 mph 17.3 mph N/A   Overcast
5:38 AM 45.7 °F 41.0 °F 44.1 °F 94% 30.05 in 10.0 mi NNW 9.2 mph 18.4 mph N/A Rain Light Rain
5:55 AM 45.5 °F 41.3 °F 44.1 °F 95% 30.06 in 10.0 mi NW 8.1 mph - N/A Rain Light Rain
6:15 AM 45.1 °F 39.9 °F 43.7 °F 95% 30.03 in 10.0 mi NNW 10.4 mph - N/A Rain Light Rain
6:16 AM 45.1 °F 40.3 °F 43.7 °F 95% 30.03 in 10.0 mi NNW 9.2 mph - N/A Rain Light Rain
6:35 AM 45.0 °F 39.7 °F 43.0 °F 93% 30.02 in 10.0 mi North 10.4 mph - N/A   Overcast
6:58 AM 44.8 °F 39.4 °F 42.6 °F 92% 30.00 in 10.0 mi NNW 10.4 mph - N/A   Overcast
7:17 AM 44.8 °F 39.0 °F 42.8 °F 93% 30.00 in 10.0 mi NNW 11.5 mph 17.3 mph N/A   Overcast
7:36 AM 44.6 °F 39.7 °F 42.8 °F 93% 30.03 in 10.0 mi NNW 9.2 mph - N/A   Overcast
7:55 AM 45.0 °F 39.7 °F 43.0 °F 93% 30.08 in 10.0 mi NW 10.4 mph - N/A Rain Rain
7:56 AM 45.0 °F 39.3 °F 43.0 °F 93% 30.08 in 10.0 mi NW 11.5 mph - N/A Rain Light Rain
8:15 AM 44.1 °F 38.6 °F 42.4 °F 94% 30.03 in 10.0 mi North 10.4 mph - N/A Rain Light Rain
8:19 AM 44.1 °F 37.7 °F 42.4 °F 94% 30.03 in 10.0 mi NNW 12.7 mph - N/A Rain Light Rain
8:38 AM 44.1 °F 38.6 °F 42.4 °F 94% 30.02 in 10.0 mi North 10.4 mph - N/A Rain Light Rain
8:56 AM 44.1 °F 39.5 °F 42.4 °F 94% 30.06 in 10.0 mi NNW 8.1 mph - N/A Rain Light Rain
9:15 AM 44.1 °F 39.0 °F 42.3 °F 93% 30.04 in 10.0 mi North 9.2 mph - N/A Rain Light Rain
9:16 AM 44.1 °F 40.1 °F 42.3 °F 93% 30.05 in 10.0 mi North 6.9 mph - N/A Rain Light Rain
9:35 AM 44.1 °F 40.1 °F 41.9 °F 92% 30.08 in 10.0 mi NNW 6.9 mph - N/A Rain Light Rain
9:40 AM 44.1 °F 39.0 °F 41.9 °F 92% 30.06 in 10.0 mi North 9.2 mph - N/A Rain Light Rain
9:57 AM 43.9 °F 39.3 °F 41.9 °F 93% 30.07 in 10.0 mi North 8.1 mph - N/A   Light Drizzle
10:16 AM 43.9 °F 38.8 °F 42.1 °F 93% 30.09 in 10.0 mi NNW 9.2 mph - N/A Rain Light Rain
10:35 AM 44.2 °F 41.0 °F 42.6 °F 94% 30.09 in 10.0 mi North 5.8 mph - N/A Rain Light Rain
10:36 AM 44.2 °F 40.3 °F 42.6 °F 94% 30.09 in 10.0 mi North 6.9 mph - N/A Rain Light Rain
10:55 AM 44.1 °F 39.5 °F 41.9 °F 92% 30.09 in 10.0 mi NNE 8.1 mph - N/A Rain Light Rain
10:56 AM 44.1 °F 39.5 °F 41.9 °F 92% 30.09 in 10.0 mi North 8.1 mph - N/A Rain Light Rain
11:18 AM 44.1 °F 40.1 °F 41.4 °F 90% 30.09 in 10.0 mi North 6.9 mph - N/A   Overcast
11:36 AM 44.6 °F 41.4 °F 42.1 °F 91% 30.09 in 10.0 mi North 5.8 mph - N/A   Overcast
11:55 AM 45.1 °F 41.4 °F 42.6 °F 91% 30.09 in 10.0 mi North 6.9 mph - N/A   Overcast
11:56 AM 45.1 °F 41.4 °F 42.6 °F 91% 30.09 in 10.0 mi North 6.9 mph - N/A   Overcast
12:15 PM 45.5 °F 42.5 °F 42.8 °F 90% 30.09 in 10.0 mi NNE 5.8 mph - N/A   Overcast
12:16 PM 45.5 °F 42.5 °F 42.6 °F 90% 30.08 in 10.0 mi NNE 5.8 mph - N/A   Overcast
12:35 PM 45.7 °F 44.4 °F 42.8 °F 90% 30.09 in 10.0 mi North 3.5 mph - N/A   Overcast
12:57 PM 46.6 °F - 42.8 °F 87% 30.08 in 10.0 mi NE 6.9 mph - N/A   Overcast
1:15 PM 47.5 °F - 43.2 °F 85% 30.06 in 10.0 mi NNE 9.2 mph - N/A   Overcast
1:35 PM 49.5 °F - 44.1 °F 82% 30.07 in 10.0 mi NNE 6.9 mph - N/A   Overcast
1:36 PM 49.5 °F - 44.1 °F 82% 30.07 in 10.0 mi NNE 8.1 mph - N/A   Overcast
1:55 PM 49.6 °F - 44.2 °F 82% 30.08 in 10.0 mi ENE 6.9 mph - N/A   Overcast
2:17 PM 51.1 °F - 44.4 °F 78% 30.08 in 10.0 mi ENE 3.5 mph - N/A   Overcast
2:35 PM 51.4 °F - 44.2 °F 76% 30.07 in 10.0 mi NNE 3.5 mph - N/A   Overcast
2:55 PM 51.3 °F - 44.6 °F 78% 30.06 in 10.0 mi NNE 5.8 mph - N/A   Overcast
2:56 PM 51.1 °F - 44.6 °F 78% 30.06 in 10.0 mi NNE 5.8 mph - N/A   Overcast
3:15 PM 52.0 °F - 43.9 °F 74% 30.06 in 10.0 mi NNE 8.1 mph - N/A   Overcast
3:16 PM 52.0 °F - 43.9 °F 74% 30.06 in 10.0 mi North 9.2 mph - N/A   Overcast
3:39 PM 52.0 °F - 43.0 °F 71% 30.07 in 10.0 mi NNE 10.4 mph - N/A   Mostly Cloudy
3:56 PM 52.2 °F - 43.3 °F 72% 30.07 in 10.0 mi NNE 4.6 mph - N/A   Mostly Cloudy
4:16 PM 52.5 °F - 43.5 °F 71% 30.06 in 10.0 mi NNE 6.9 mph - N/A   Mostly Cloudy
4:35 PM 52.7 °F - 43.7 °F 71% 30.05 in 10.0 mi North 10.4 mph - N/A   Scattered Clouds
4:36 PM 52.7 °F - 43.7 °F 71% 30.05 in 10.0 mi North 11.5 mph - N/A   Clear
4:55 PM 52.2 °F - 43.7 °F 73% 30.05 in 10.0 mi NNE 8.1 mph - N/A   Clear
4:59 PM 52.2 °F - 43.7 °F 73% 30.05 in 10.0 mi North 5.8 mph - N/A   Clear
5:18 PM 52.0 °F - 43.9 °F 74% 30.05 in 10.0 mi North 9.2 mph - N/A   Clear
5:35 PM 51.4 °F - 43.5 °F 74% 30.05 in 10.0 mi North 9.2 mph - N/A   Scattered Clouds
5:55 PM 51.3 °F - 43.7 °F 75% 30.06 in 10.0 mi North 6.9 mph - N/A   Overcast
5:56 PM 51.3 °F - 43.7 °F 75% 30.06 in 10.0 mi North 5.8 mph - N/A   Overcast
6:15 PM 50.9 °F - 43.7 °F 76% 30.06 in 10.0 mi NNE 5.8 mph - N/A   Mostly Cloudy
6:38 PM 50.7 °F - 44.4 °F 79% 30.06 in 10.0 mi NNE 5.8 mph - N/A   Scattered Clouds
6:57 PM 50.4 °F - 45.0 °F 82% 30.06 in 10.0 mi NNE 3.5 mph - N/A   Mostly Cloudy
7:16 PM 50.4 °F - 44.4 °F 80% 30.05 in 10.0 mi NNE 5.8 mph - N/A   Overcast
7:35 PM 50.0 °F - 43.7 °F 79% 30.06 in 10.0 mi North 5.8 mph - N/A   Overcast
7:55 PM 49.8 °F - 42.4 °F 76% 30.06 in 10.0 mi North 9.2 mph - N/A   Overcast
7:59 PM 49.5 °F - 42.3 °F 76% 30.06 in 10.0 mi North 10.4 mph - N/A   Mostly Cloudy
8:18 PM 48.9 °F - 41.0 °F 74% 30.05 in 10.0 mi North 13.8 mph - N/A   Mostly Cloudy
8:35 PM 48.2 °F - 41.0 °F 76% 30.06 in 10.0 mi North 12.7 mph 16.1 mph N/A   Overcast
8:55 PM 47.7 °F - 41.0 °F 78% 30.07 in 10.0 mi North 12.7 mph 16.1 mph N/A   Overcast
8:56 PM 47.7 °F - 41.0 °F 78% 30.07 in 10.0 mi North 10.4 mph 16.1 mph N/A   Overcast
9:15 PM 46.9 °F - 40.6 °F 79% 30.08 in 10.0 mi North 11.5 mph 18.4 mph N/A   Overcast
9:38 PM 45.9 °F 41.2 °F 40.1 °F 80% 30.08 in 10.0 mi North 9.2 mph - N/A   Mostly Cloudy
9:57 PM 45.3 °F 41.6 °F 39.7 °F 81% 30.09 in 10.0 mi North 6.9 mph - N/A   Scattered Clouds
10:16 PM 45.0 °F 39.3 °F 39.9 °F 82% 30.10 in 10.0 mi North 11.5 mph - N/A   Scattered Clouds
10:35 PM 44.6 °F 37.8 °F 39.4 °F 82% 30.10 in 10.0 mi North 15.0 mph - N/A   Mostly Cloudy
10:36 PM 44.6 °F 38.1 °F 39.2 °F 81% 30.10 in 10.0 mi North 13.8 mph 17.3 mph N/A   Mostly Cloudy
10:55 PM 44.1 °F 38.1 °F 39.2 °F 83% 30.10 in 10.0 mi North 11.5 mph 17.3 mph N/A   Scattered Clouds
11:17 PM 43.7 °F 38.1 °F 38.7 °F 82% 30.10 in 10.0 mi North 10.4 mph 18.4 mph N/A   Clear
11:36 PM 43.5 °F 37.9 °F 38.8 °F 84% 30.11 in 10.0 mi North 10.4 mph - N/A   Mostly Cloudy
11:55 PM 43.7 °F 38.6 °F 38.7 °F 82% 30.11 in 10.0 mi North 9.2 mph - N/A   Overcast
11:56 PM 43.7 °F 39.1 °F 38.7 °F 82% 30.11 in 10.0 mi North 8.1 mph - N/A   Overcast